Flag for Japan Weather past 2 weeks in Nagano, Japan

Now
31 °F

Chilly.


Feels Like: 31 °F
Forecast: 17 / 40 °F
Wind: 2 mph from Northeast

Location: Nagano

Current Time: Dec 22, 2014 at 11:47:01 AM

Latest Report: Dec 22, 2014 at 11:00 AM


Visibility: N/A

Pressure: 29.90 "Hg

Humidity: 88%

Dew point: 28 °F

Location of NaganoLocation

Historic Weather in Nagano — Graph

°F

Nagano temperature yesterday

Maximum temperature yesterday: 41 °F (at 1:00 PM)
Minimum temperature yesterday: 33 °F (at 11:00 PM)
Average temperature yesterday: 36 °F

Past Weeks' High & Low Weather Summary

 TemperatureHumidityPressure
High46 °F (Dec 11, 3:00 PM)97% (Dec 16, 10:00 PM)30.55 "Hg (Dec 16, 10:00 PM)
Low22 °F (Dec 19, 7:00 AM)47% (Dec 10, 3:00 PM)29.47 "Hg (Dec 16, 8:00 PM)
Average33 °F84%30.07 "Hg
* Reported Dec 7 10:00 AM — Dec 22 10:00 AM, Nagano, Weather by CustomWeather, © 2014

Note: Actual official high and low records may vary slightly from our data, if they occured in-between our weather recording intervals... More about our weather records

Advertising

Nagano weather history for previous 24 hours

 ConditionsComfort  
Time TempWeatherWind HumidityBarometerVisibility
10:00 AM
Dec 22
31 °FChilly.5 mph87%29.91 "HgN/A
9:00 AM31 °FSnow flurries. Overcast.1 mph83%29.90 "Hg6 mi
8:00 AM31 °FChilly.2 mph79%29.89 "HgN/A
7:00 AM30 °FChilly.6 mph77%29.88 "HgN/A
5:00 AM30 °FChilly.3 mph73%29.88 "HgN/A
4:00 AM30 °FChilly.5 mph93%29.89 "HgN/A
3:00 AM31 °FPassing clouds.5 mph88%29.88 "Hg6 mi
2:00 AM32 °FChilly.2 mph95%29.89 "HgN/A
1:00 AM32 °FChilly.1 mph95%29.87 "HgN/A
12:00 AM33 °FChilly.3 mph95%29.86 "HgN/A
11:00 PM
Dec 21
33 °FChilly.3 mph94%29.86 "HgN/A
10:00 PM33 °FChilly.5 mph93%29.86 "HgN/A
9:00 PM34 °FSnow flurries. Overcast.1 mph89%29.88 "Hg6 mi
8:00 PM34 °FChilly.3 mph88%29.88 "HgN/A
7:00 PM35 °FChilly.5 mph86%29.83 "HgN/A
6:00 PM35 °FChilly.2 mph83%29.86 "HgN/A
5:00 PM36 °FChilly.3 mph80%29.85 "HgN/A
4:00 PM39 °FChilly.No wind72%29.85 "HgN/A
3:00 PM39 °FPartly sunny.7 mph73%29.85 "Hg19 mi
2:00 PM40 °FQuite cool.10 mph66%29.85 "HgN/A
1:00 PM41 °FQuite cool.9 mph65%29.83 "HgN/A
12:00 PM40 °FChilly.7 mph68%29.87 "HgN/A
11:00 AM39 °FChilly.6 mph72%29.91 "HgN/A
Weather by CustomWeather, © 2014

See weather overviewHow to use our weather pages